sat.trackr.live / text

‹ back to catalog

STARLINK-1559

NORAD 46077 · 2020-055BC

PAYLOAD ACTIVE UNKNOWN

§ Identity

Operator
Country
US
Launch date
2020-08-07
Launch site
AFETR
Launch vehicle
Mass (kg)
RCS (m²)

Purposes: comms

External: N2YO · Heavens-Above · Gunter

§ Orbital elements

Epoch: 2026-05-25T01:53:36.059712Z

Period
93.70 min
Inclination
53.0236°
Eccentricity
0.0002869
Mean motion
15.36766723 rev/d
Perigee alt
453.7 km
Apogee alt
457.6 km
Semi-major
6,833.8 km
B*
1.2742e-3
RAAN
76.2683°
Arg perigee
60.4784°
Mean anomaly
299.6503°
Rev number
32,130

§ Raw data

STARLINK-15591 46077U 20055BC  26145.07888958  .00046347  00000+0  12742-2 0  99982 46077  53.0236  76.2683 0002869  60.4784 299.6503 15.36766723321300

JSON: /api/v1/satellites/46077 · /tle

For live sub-satellite position, see the globe view (requires WebGL).

§ Visibility from observer

Set your observer location to see the next 7 days of passes ≥ 10°. The values pass through the URL so the page stays shareable.

No JS? Fill the form by hand. The geolocation button needs JavaScript.